Observations for Trim Market St
| Time | AQI | Temp °C | Hum % | Pres Pa | CO μg/m³ | H₂S μg/m³ | NO μg/m³ | NO₂ μg/m³ | O₃ μg/m³ | SO₂ μg/m³ | PM1 μg/m³ | PM2.5 μg/m³ | PM10 μg/m³ |
|---|---|---|---|---|---|---|---|---|---|---|---|---|---|
| Tuesday 14 July 2026 | |||||||||||||
| 18:27 | 2 | 25 | 36 | 65,732 | 0 | 6.7 | 0 | 12.82 | 34.62 | 0 | 2.85 | 6.79 | 9.18 |
| 18:26 | 1 | 25 | 36 | 65,746 | 0 | 6.3 | 0 | 11.33 | 39.31 | 0 | 2.85 | 6.26 | 6.7 |
| 18:25 | 1 | 25 | 36 | 65,756 | 0 | 5.56 | 0 | 10.64 | 37.79 | 0 | 3.56 | 6.8 | 8.36 |
| 18:24 | 1 | 25 | 36 | 65,746 | 0 | 4.68 | 0 | 9.44 | 35 | 0 | 3.56 | 7.34 | 8.36 |
| 18:23 | 1 | 25 | 36 | 65,732 | 0 | 5 | 0 | 9.14 | 40.97 | 0 | 2.85 | 6.27 | 8.36 |
| 18:22 | 1 | 25 | 36 | 65,713 | 0 | 5.58 | 0 | 10.36 | 36.49 | 0 | 2.85 | 7.88 | 11.68 |
| 18:21 | 1 | 25.1 | 36 | 65,715 | 0 | 5.93 | 0 | 9.54 | 39.42 | 0 | 3.56 | 7.35 | 8.36 |
| 18:20 | 1 | 25 | 36 | 65,719 | 0 | 7.87 | 0 | 10.38 | 39.3 | 0 | 4.28 | 6.82 | 10.02 |
| 18:19 | 1 | 25.1 | 36 | 65,723 | 0 | 6.78 | 0 | 11.35 | 38.42 | 0 | 2.85 | 7.36 | 9.19 |
| 18:18 | 1 | 25.1 | 35 | 65,728 | 0 | 8.16 | 0 | 13.76 | 32.03 | 0 | 3.56 | 6.83 | 8.36 |
| 18:17 | 1 | 25.1 | 35 | 65,732 | 0 | 8.88 | 0 | 13.47 | 38.33 | 0 | 4.28 | 7.9 | 9.19 |
| 18:16 | 1 | 25.1 | 35 | 65,740 | 0 | 7.87 | 0 | 10.5 | 39.78 | 0 | 3.56 | 7.38 | 8.36 |
| 18:14 | 1 | 25.1 | 35 | 65,750 | 0 | 10.26 | 0 | 11.92 | 44.37 | 0 | 2.14 | 7.39 | 9.2 |
| 18:13 | 1 | 25.1 | 35 | 65,766 | 0 | 8.37 | 0 | 10.24 | 39.7 | 0 | 2.85 | 5.79 | 6.69 |
| 18:12 | 1 | 25.1 | 34 | 65,752 | 0 | 9.2 | 0 | 11.97 | 40.99 | 0 | 3.56 | 7.41 | 9.2 |
| 18:11 | 1 | 25.2 | 34 | 65,762 | 0 | 8.21 | 0 | 9.95 | 39.53 | 0 | 2.14 | 5.81 | 5.85 |
| 18:10 | 1 | 25.2 | 34 | 65,780 | 0 | 10.26 | 0 | 10.77 | 43.52 | 0 | 2.85 | 5.82 | 6.69 |
| 18:09 | 1 | 25.2 | 34 | 65,776 | 0 | 7.92 | 0 | 9.78 | 42.62 | 0 | 4.28 | 7.43 | 8.37 |
| 18:08 | 1 | 25.3 | 34 | 65,768 | 0 | 4.83 | 0 | 8.28 | 40.92 | 0 | 2.85 | 7.44 | 10.05 |
| 18:07 | 1 | 25.3 | 34 | 65,791 | 0 | 3 | 0 | 7.08 | 34.6 | 0 | 4.28 | 7.44 | 9.21 |